VOE36Z LFSL-LFPO

Flight info

Callsign VOE36Z
Flight time N/A
Altitude 34000
Route MAKOX DCT SOLNO DCT BALAN DCT BEVOL/N0405F300 UT158 AMB
Aircraft A319/M-SDE3FGHIRWY/LB1

Departure

Time 2026-05-07 17:42
Airport Brive Souillac airport (LFSL)

Arrival

Time N/A
Airport Paris-Orly Airport (LFPO)
Time Latitude Longitude Altitude Speed Heading
2026-05-07 17:37 45.04031 1.49030 1007 ft 0 kts 252°
2026-05-07 17:38 45.04031 1.49027 1007 ft 2 kts 252°
2026-05-07 17:38 45.04018 1.48984 1008 ft 7 kts 237°
2026-05-07 17:38 45.03963 1.48937 1008 ft 12 kts 204°
2026-05-07 17:38 45.03885 1.48898 1009 ft 13 kts 175°
2026-05-07 17:39 45.03829 1.49005 1011 ft 16 kts 114°
2026-05-07 17:39 45.03776 1.49169 1013 ft 20 kts 114°
2026-05-07 17:39 45.03714 1.49361 1017 ft 23 kts 115°
2026-05-07 17:39 45.03639 1.49555 1015 ft 16 kts 126°
2026-05-07 17:40 45.03620 1.49634 1015 ft 5 kts 39°
2026-05-07 17:40 45.03638 1.49600 1015 ft 6 kts 282°
2026-05-07 17:40 45.03645 1.49575 1015 ft 0 kts 295°
2026-05-07 17:42 45.03692 1.49430 1016 ft 53 kts 295°
2026-05-07 17:42 45.03964 1.48591 1011 ft 130 kts 294°
2026-05-07 17:42 45.04383 1.47314 1439 ft 146 kts 297°
2026-05-07 17:42 45.04903 1.46071 2100 ft 151 kts 314°
2026-05-07 17:43 45.05820 1.45312 2775 ft 154 kts 336°
2026-05-07 17:43 45.06849 1.44574 3239 ft 177 kts 333°
2026-05-07 17:43 45.07996 1.43716 3655 ft 201 kts 333°
2026-05-07 17:43 45.09313 1.42711 4144 ft 226 kts 332°
2026-05-07 17:44 45.10755 1.41597 4726 ft 251 kts 332°
2026-05-07 17:44 45.12356 1.40351 5428 ft 270 kts 332°
2026-05-07 17:44 45.14029 1.39042 6461 ft 276 kts 332°
2026-05-07 17:44 45.15707 1.37728 7461 ft 280 kts 331°
2026-05-07 17:45 45.17432 1.36374 8524 ft 284 kts 331°
2026-05-07 17:45 45.19175 1.35001 9586 ft 288 kts 330°
2026-05-07 17:45 45.20937 1.33607 10365 ft 301 kts 330°
2026-05-07 17:45 45.22828 1.32107 10878 ft 321 kts 330°
2026-05-07 17:46 45.24800 1.30541 11713 ft 328 kts 330°
2026-05-07 17:46 45.26807 1.28946 12621 ft 333 kts 329°
2026-05-07 17:46 45.28848 1.27322 13531 ft 337 kts 329°
2026-05-07 17:46 45.30891 1.25701 14333 ft 342 kts 329°
2026-05-07 17:47 45.33016 1.24083 15104 ft 348 kts 333°
2026-05-07 17:47 45.35299 1.22932 15855 ft 354 kts 341°
2026-05-07 17:47 45.37683 1.21912 16618 ft 359 kts 341°
2026-05-07 17:47 45.40105 1.20867 17369 ft 365 kts 341°
2026-05-07 17:48 45.42521 1.19814 18101 ft 370 kts 341°
2026-05-07 17:48 45.45009 1.18727 18768 ft 375 kts 341°
2026-05-07 17:48 45.47489 1.17645 19452 ft 378 kts 341°
2026-05-07 17:48 45.50033 1.16539 20159 ft 382 kts 341°
2026-05-07 17:49 45.52566 1.15435 20844 ft 385 kts 341°
2026-05-07 17:49 45.55152 1.14304 21536 ft 389 kts 341°
2026-05-07 17:49 45.57730 1.13177 22210 ft 392 kts 341°
2026-05-07 17:49 45.60361 1.12021 22873 ft 396 kts 341°
2026-05-07 17:50 45.63066 1.11235 23527 ft 403 kts 352°
2026-05-07 17:50 45.65892 1.10957 24096 ft 407 kts 354°
2026-05-07 17:50 45.68701 1.10709 24628 ft 410 kts 354°
2026-05-07 17:50 45.71574 1.10453 25169 ft 414 kts 354°
2026-05-07 17:51 45.74475 1.10196 25696 ft 418 kts 354°
2026-05-07 17:51 45.77367 1.09942 26207 ft 421 kts 354°
2026-05-07 17:51 45.80313 1.09681 26715 ft 425 kts 354°